Location: Fort Wayne
(41.1310°N, 85.1290°W)
Time: 21:04:04
(UTC-04:00)

Gbstr 26 Del rocket - Visible Passes

Search period start: 29 March 2015 00:00
Search period end: 08 April 2015 00:00
Orbit: 493 x 1273 km, 51.8° (Epoch: 28 March)

Date Brightness Start Highest point End Pass type
(mag) Time Alt. Az. Time Alt. Az. Time Alt. Az.
31 Mar 7.1 06:56:13 10° SE 06:59:14 13° ESE 07:02:40 10° E visible
01 Apr 6.9 06:51:15 10° SSE 06:55:49 17° SE 07:00:36 10° E visible
02 Apr 6.7 06:46:47 10° S 06:52:25 22° SE 06:58:04 10° ENE visible
03 Apr 6.4 06:42:38 10° S 06:49:01 27° SE 06:55:17 10° ENE visible
04 Apr 6.0 06:38:40 10° S 06:45:38 33° SE 06:52:22 10° ENE visible
05 Apr 5.7 06:34:51 10° SSW 06:42:15 40° SE 06:49:20 10° ENE visible
06 Apr 6.8 04:50:34 10° SE 04:52:16 11° ESE 04:54:33 10° ESE visible
06 Apr 5.4 06:31:10 10° SSW 06:38:53 48° SE 06:46:13 10° ENE visible
07 Apr 6.6 04:44:54 10° SSE 04:48:46 15° ESE 04:53:05 10° E visible
07 Apr 5.1 06:27:34 10° SSW 06:35:31 57° SE 06:43:03 10° ENE visible
